Other Public Products
Issued by NWS Grand Forks, ND

Home | Current Version | Previous Version | Graphics & Text | Print | Product List | Glossary On
Versions: 1 2 3 4 5 6 7 8 9 10 11 12 13 14 15 16 17 18 19 20 21 22 23 24 25 26 27 28 29 30 31 32 33 34 35 36 37 38 39 40 41 42 43 44 45 46 47 48 49 50
000
FPUS83 KFGF 230831
OPUFGF
PRAIRIE TO PINES WEATHER ROUNDUP
NATIONAL WEATHER SERVICE EASTERN NORTH DAKOTA/GRAND FORKS ND
200 AM CST MON JAN 23 2017

 **SATELLITE DATA USED TO AUGMENT SKY COVER AT AUTOMATED STATIONS**
 *****  WEATHER ACROSS EASTERN NORTH DAKOTA  *****

CITY           SKY/WX    TMP DP  RH WIND       PRES   REMARKS
GRAND FORKS    CLOUDY    33  27  78 W5        29.77S
GRAND FORKS AF CLOUDY    32  28  84 W9        29.77R WCI  24
GRAND CITY NWS NOT AVBL
BUXTON           N/A     31  30  96 W6          N/A  WCI  25
DEVILS LAKE    CLOUDY    29  26  89 W13       29.75S WCI  19
FARGO          CLOUDY    34  30  85 W6        29.80R
WAHPETON ARPT  CLOUDY    32  28  86 NW9       29.82R WCI  24
$$

 *****  WEATHER ACROSS CENTRAL AND WESTERN NORTH DAKOTA  *****

CITY           SKY/WX    TMP DP  RH WIND       PRES   REMARKS
JAMESTOWN      CLOUDY    31  26  82 W13       29.78F WCI  21
BISMARCK       CLOUDY    30  24  78 W5        29.82F
MINOT          MOCLDY    27  22  81 W8        29.77R WCI  19
MINOT AFB      CLOUDY    27  22  82 W10       29.76R WCI  17
GARRISON         N/A     28  21  75 W9        29.79R WCI  19
WILLISTON      CLOUDY    28  24  85 SW5       29.79S WCI  23
DICKINSON      CLOUDY    24  19  81 NW5       29.75F WCI  18
HETTINGER      CLOUDY    23  22  96 CALM      29.79F FOG
$$

 *****  OTHER OBSERVATIONS NORTHEAST NORTH DAKOTA  *****

CITY           SKY/WX    TMP DP  RH WIND       PRES   REMARKS
WALHALLA       NOT AVBL
LANGDON        NOT AVBL
CAVALIER       CLOUDY    32  28  86 W5        29.75S
GRAFTON        CLOUDY    32  32 100 SW6       29.78R
CANDO          NOT AVBL
FORT TOTTEN      N/A     29  29  99 W6        29.95S WCI  23
ROLLA            N/A    N/A N/A N/A MISG        N/A
RUGBY            N/A     27  27 100 W13       29.76R WCI  16
 ***** THE ABOVE OBSERVATIONS ARE NON NWS ARE NOT QUALITY
        CONTROLLED AND MAY MIS-REPORT RAIN FOR SNOW...
$$

 *****  OTHER OBSERVATIONS SOUTHEAST NORTH DAKOTA *****

CITY           SKY/WX    TMP DP  RH WIND       PRES   REMARKS
COOPERSTOWN    CLOUDY    30  28  93 W9        29.78S WCI  22
VALLEY CITY    CLOUDY    32  28  86 NW13      29.81R WCI  22
OAKES          NOT AVBL
GWINNER        CLOUDY    34  32  93 W7        29.83R
SHEYENNE NWR     N/A     33  26  75 NW7       29.95S
BUFFALO          N/A     33  23  67 W10         N/A  WCI  24
WYNDMERE         N/A     34  30  86 W8          N/A
 ***** THE ABOVE OBSERVATIONS ARE NON NWS ARE NOT QUALITY
       CONTROLLED AND MAY MIS-REPORT RAIN FOR SNOW...
$$

  *****  WEATHER ACROSS NORTHERN MINNESOTA  *****

CITY           SKY/WX    TMP DP  RH WIND       PRES   REMARKS
FLAG ISLAND    FOG       32  32 100 CALM      29.72S VSB 3/4
WARROAD        LGT SNOW  32  28  86 SW3       29.74S
ROSEAU         FOG       34  28  80 CALM      29.74S VSB 3/4
HALLOCK        CLOUDY    32  30  93 CALM      29.75S
THF RVR FALLS  CLOUDY    30  28  93 SW7       29.77R WCI  23
HALSTAD          N/A     32  28  88 W5          N/A
FOSSTON        CLOUDY    28  28 100 SW5       29.77S FOG     WCI  23
BAUDETTE       CLOUDY    33  32  96 W3        29.72F
WASKISH        CLOUDY    32  32 100 W3        29.75R FOG
CROOKSTON      CLOUDY    32  30  93 W6        29.79R
$$
  *****  WEATHER ACROSS CENTRAL AND WEST MINNESOTA  *****

CITY           SKY/WX    TMP DP  RH WIND       PRES   REMARKS
BEMIDJI        CLOUDY    31  30  97 W7        29.75R FOG     WCI  24
PARK RAPIDS    CLOUDY    32  27  81 W9        29.75S WCI  24
WADENA         CLOUDY    30  28  93 W5        29.77S FOG
DETROIT LAKES  CLOUDY    32  30  93 NW7       29.79R FOG
MOORHEAD       CLOUDY    30  28  93 CALM      29.81S
FERGUS FALLS   CLOUDY    30  30 100 NW5       29.84S
ELBOW LAKE     CLOUDY    31  30  97 NW7       29.81S FOG     WCI  24
MORRIS MN      CLOUDY    32  30  93 NW7       29.80S
STAPLES        CLOUDY    30  30 100 W5        29.78R FOG
WHEATON        CLOUDY    39  39 100 W9        29.84S
$$
  *****  WEATHER ELSEWHERE ACROSS MINNESOTA  *****

CITY           SKY/WX    TMP DP  RH WIND       PRES   REMARKS
DULUTH         FOG       35  34  96 NW6       29.71R VSB 3/4
INTRNTL FALLS  FOG       34  33  96 W3        29.73R VSB 1
ELY            CLOUDY    32  32 100 CALM      29.71R FOG
CLOQUET        CLOUDY    36  34  93 W5        29.74R
BRAINERD       CLOUDY    32  32 100 W5        29.77R FOG
HIBBING        CLOUDY    33  33 100 NW3       29.73R
ALEXANDRIA     CLOUDY    30  28  92 NW9       29.78F WCI  22
SAINT CLOUD    CLOUDY    32  32 100 W8        29.78R FOG     WCI  25
MINNEAPOLIS    DRIZZLE   34  32  92 W3        29.81R FOG
$$

  *****  WEATHER ACROSS SOUTH DAKOTA  *****

CITY           SKY/WX    TMP DP  RH WIND       PRES   REMARKS
SIOUX FALLS    CLOUDY    32  29  88 W13       29.86S WCI  22
BROOKINGS      CLOUDY    31  28  89 NW13      29.83S WCI  21
WATERTOWN      CLOUDY    30  27  88 NW9       29.82S WCI  22
HURON          CLOUDY    30  27  88 NW7       29.87F WCI  23
SISSETON         N/A     33  31  92 N9        29.82R
ABERDEEN       CLOUDY    31  25  78 NW6       29.85F
MITCHELL       CLOUDY    31  27  85 NW10      29.89F WCI  22
PIERRE         CLOUDY    26  23  88 SW3       29.85F
MOBRIDGE       CLOUDY    29  23  78 N3        29.80F
RAPID CITY     FAIR      21  18  88 E3        29.73F
$$

  *****  SOME WEATHER IN NEARBY STATES *****

CITY           SKY/WX    TMP DP  RH WIND       PRES   REMARKS
GLASGOW MT     CLOUDY    28  24  85 SW3       29.75F
GREAT FALLS MT LGT SNOW  24  21  88 N6        29.69F FOG     WCI  17
CHEYENNE WY    CLOUDY    29  12  49 S5        29.71F WCI  24
SCOTTSBLUFF NE CLOUDY    27  21  78 CALM      29.77F
OMAHA NE       CLOUDY    32  26  78 N10       29.90F WCI  24
DES MOINES IA  DRIZZLE   33  31  92 NW9       29.88R FOG
DAVENPORT IA   CLOUDY    35  33  92 NW6       29.79R FOG
CHICAGO IL     CLOUDY    38  37  97 NW12      29.69F FOG
EAU CLAIRE WI  FOG       34  34 100 W3        29.77R VSB 1
LA CROSSE WI   FOG       38  35  89 CALM      29.79S VSB 1/2
$$

  *****  SOME NATIONAL WEATHER *****

CITY           SKY/WX    TMP DP  RH WIND       PRES   REMARKS
LA GUARDIA NY  CLOUDY    44  39  82 E28G36    29.82F
RALEIGH NC     CLOUDY    52  51  97 E14G25    29.29F FOG
ATLANTA GA     RAIN      48  47  96 S8        29.20F FOG
NEW ORLEANS LA CLOUDY    58  49  72 W18G29    29.67R
OKLAHOMA CITY  FAIR      39  29  67 N3        29.96F
ALBUQUERQUE NM MOCLDY    38  31  76 W5        30.07F
SALT LAKE CITY CLOUDY    38  31  76 S15       29.64F
LOS ANGELES CA MOCLDY    55  52  89 SW14G22   29.90F
BOISE ID       FAIR      28  25  88 E3        29.61F
SEATTLE WA     FAIR      38  33  82 N5        29.60S
$$

*** WEATHER ACROSS MANITOBA...SASKATCHEWAN AND ONTARIO ***
                ***ONTARIO***

CITY           SKY/WX    TMP DP  RH WIND       PRES   REMARKS
GERALDTON      SNOW      32  32 100 E5        29.72R VSB 1/2
THUNDER BAY    CLOUDY    32  32 100 S3        29.73R
SIOUX LOOKOUT  CLOUDY    30  30 100 VRB2      29.72S
TORONTO        LGT RAIN  36  34  93 E13G20    29.77F
BIG TROUT LK   CLOUDY    27  25  93 E3        29.82S
PICKLE LAKE    NOT AVBL
DRYDEN         CLOUDY    32  32 100 CALM      29.72
KENORA         FOG       32  32 100 SW3       29.71S VSB 1/8
$$
                *** MANITOBA***

CITY           SKY/WX    TMP DP  RH WIND       PRES   REMARKS
BRANDON        CLOUDY    27  25  93 W14       29.70S WCI  15
DAUPHIN        FLURRIES  30  28  93 W9        29.67F WCI  22
ISLAND LAKE    FLURRIES  30  30 100 E3        29.75F
PILOT MOUND      N/A     28  25  86 W6          N/A  WCI  22
THE PAS        FLURRIES  28  27  93 NE7       29.76S WCI  21
THOMPSON       LGT SNOW  21  19  93 NE12      29.85S WCI   9
WINNIPEG       CLOUDY    32  28  86 SW6       29.72S
LYNN LAKE      LGT SNOW  10   9  92 NE13G18   29.92S WCI  -5
CHURCHILL      FLURRIES  18  16  93 NE18      30.02S WCI   2
GILLAM         LGT SNOW  23  21  93 NE9       29.88R WCI  13
$$
                ***SASKATCHEWAN***

CITY           SKY/WX    TMP DP  RH WIND       PRES   REMARKS
ESTEVAN        CLOUDY    23  19  86 W14       29.76S WCI  11
KINDERSLEY     FLURRIES  14  10  85 NW6       29.81R WCI   5
LLOYDMINSTER   FLURRIES  12  10  92 N8        29.86S WCI   1
PRINCE ALBERT  LGT SNOW  19  16  86 N7        29.79S WCI  10
REGINA         CLOUDY    19  16  86 W12       29.76S WCI   7
YORKTON        CLOUDY    23  21  93 W12       29.69S WCC1F1C2F2C3F3C4F4C5F5C6F6C7F7C8F8C9F9CaFaCbFbCcFcCdFdCe!


USA.gov is the U.S. government's official web portal to all federal, state and local government web resources and services.